EN

Hourly Weather Labensk

Today, 25 July, Sunday

Time Temperature Precipitation Wind Pressure Humidity
00:00 +14°C° 0 mm 1 mps 758 mmHg 71%
01:00 +13°C° 0 mm 1 mps 758 mmHg 74%
02:00 +12°C° 0 mm 0 mps 758 mmHg 76%
03:00 +12°C° 0 mm 0 mps 758 mmHg 76%
04:00 +12°C° 0 mm 0 mps 758 mmHg 76%
05:00 +12°C° 0 mm 0 mps 758 mmHg 76%
06:00 +15°C° 0 mm 0 mps 758 mmHg 68%
07:00 +17°C° 0 mm 0 mps 759 mmHg 60%
08:00 +19°C° 0 mm 0 mps 759 mmHg 52%
09:00 +23°C° 0 mm 1 mps 759 mmHg 48%
10:00 +25°C° 0 mm 1 mps 759 mmHg 43%
11:00 +26°C° 0 mm 1 mps 759 mmHg 39%
12:00 +27°C° 0 mm 1 mps 759 mmHg 37%
13:00 +27°C° 0 mm 1 mps 759 mmHg 35%
14:00 +28°C° 0 mm 1 mps 758 mmHg 34%
15:00 +28°C° 0 mm 1 mps 758 mmHg 34%
16:00 +28°C° 0 mm 1 mps 758 mmHg 35%
17:00 +28°C° 0 mm 1 mps 758 mmHg 35%
18:00 +26°C° 0 mm 1 mps 758 mmHg 44%
19:00 +24°C° 0 mm 1 mps 759 mmHg 52%
20:00 +22°C° 0 mm 1 mps 759 mmHg 61%
21:00 +21°C° 0 mm 1 mps 759 mmHg 63%
22:00 +19°C° 0 mm 1 mps 759 mmHg 66%
23:00 +18°C° 0 mm 1 mps 759 mmHg 68%

Tomorrow, 26 July, Monday

Time Temperature Precipitation Wind Pressure Humidity
00:00 +18°C° 0 mm 1 mps 760 mmHg 70%
01:00 +16°C° 0 mm 1 mps 760 mmHg 71%
02:00 +16°C° 0 mm 1 mps 760 mmHg 73%
03:00 +16°C° 0 mm 1 mps 760 mmHg 73%
04:00 +16°C° 0 mm 1 mps 760 mmHg 74%
05:00 +16°C° 0 mm 1 mps 760 mmHg 74%
06:00 +19°C° 0 mm 1 mps 760 mmHg 66%
07:00 +20°C° 0 mm 0 mps 760 mmHg 58%
08:00 +22°C° 0 mm 0 mps 760 mmHg 51%
09:00 +24°C° 0 mm 0 mps 760 mmHg 46%
10:00 +28°C° 0 mm 1 mps 760 mmHg 41%
11:00 +29°C° 0 mm 1 mps 760 mmHg 36%
12:00 +30°C° 0 mm 1 mps 760 mmHg 34%
13:00 +29°C° 0 mm 0 mps 760 mmHg 32%
14:00 +29°C° 0 mm 0 mps 760 mmHg 31%
15:00 +31°C° 0 mm 1 mps 759 mmHg 31%
16:00 +31°C° 0 mm 1 mps 759 mmHg 32%
17:00 +30°C° 0 mm 1 mps 759 mmHg 32%
18:00 +28°C° 0 mm 1 mps 759 mmHg 40%
19:00 +26°C° 0 mm 1 mps 759 mmHg 48%
20:00 +24°C° 0 mm 2 mps 759 mmHg 56%
21:00 +23°C° 0 mm 2 mps 759 mmHg 58%
22:00 +21°C° 0 mm 2 mps 759 mmHg 60%
23:00 +20°C° 0 mm 2 mps 759 mmHg 62%

Day after tomorrow, 27 July, Tuesday

Time Temperature Precipitation Wind Pressure Humidity
00:00 +20°C° 0 mm 2 mps 759 mmHg 64%
01:00 +19°C° 0 mm 2 mps 759 mmHg 66%
02:00 +19°C° 0 mm 2 mps 759 mmHg 68%
03:00 +19°C° 0 mm 2 mps 759 mmHg 69%
04:00 +20°C° 0 mm 1 mps 759 mmHg 69%
05:00 +20°C° 0 mm 1 mps 759 mmHg 70%
06:00 +22°C° 0 mm 1 mps 759 mmHg 65%
07:00 +23°C° 0 mm 1 mps 759 mmHg 60%
08:00 +25°C° 0 mm 2 mps 759 mmHg 56%
09:00 +27°C° 0 mm 2 mps 759 mmHg 50%
10:00 +29°C° 0 mm 2 mps 758 mmHg 44%
11:00 +31°C° 0 mm 2 mps 758 mmHg 37%
12:00 +31°C° 0 mm 2 mps 758 mmHg 36%
13:00 +31°C° 0 mm 3 mps 757 mmHg 34%
14:00 +33°C° 0 mm 3 mps 757 mmHg 33%
15:00 +31°C° 0 mm 3 mps 757 mmHg 35%
16:00 +30°C° 0 mm 3 mps 756 mmHg 38%
17:00 +29°C° 0 mm 3 mps 756 mmHg 41%
18:00 +28°C° 0 mm 2 mps 756 mmHg 47%
19:00 +26°C° 0 mm 2 mps 755 mmHg 54%
20:00 +24°C° 0 mm 2 mps 755 mmHg 60%
21:00 +23°C° 0 mm 2 mps 755 mmHg 64%
22:00 +21°C° 0 mm 2 mps 755 mmHg 68%
23:00 +20°C° 0 mm 2 mps 755 mmHg 72%

28 July, Wednesday

Time Temperature Precipitation Wind Pressure Humidity
00:00 +19°C° 0 mm 2 mps 755 mmHg 75%
01:00 +18°C° 0 mm 2 mps 755 mmHg 78%
02:00 +18°C° 0 mm 2 mps 754 mmHg 81%
03:00 +18°C° 0 mm 2 mps 754 mmHg 82%
04:00 +18°C° 0 mm 2 mps 754 mmHg 84%
05:00 +18°C° 0 mm 2 mps 753 mmHg 85%
06:00 +19°C° 0 mm 2 mps 753 mmHg 82%
07:00 +21°C° 0 mm 2 mps 753 mmHg 78%
08:00 +22°C° 0 mm 3 mps 752 mmHg 75%
09:00 +22°C° 0.1 mm 3 mps 752 mmHg 78%
10:00 +22°C° 0.1 mm 3 mps 752 mmHg 81%
11:00 +22°C° 0.1 mm 3 mps 752 mmHg 83%
12:00 +23°C° 0.2 mm 2 mps 752 mmHg 82%
13:00 +23°C° 0.2 mm 2 mps 752 mmHg 81%
14:00 +23°C° 0.2 mm 2 mps 751 mmHg 80%
15:00 +24°C° 0.5 mm 1 mps 751 mmHg 81%
16:00 +24°C° 0.5 mm 1 mps 751 mmHg 82%
17:00 +24°C° 0.5 mm 1 mps 751 mmHg 83%
18:00 +23°C° 0.5 mm 1 mps 751 mmHg 86%
19:00 +22°C° 0.5 mm 1 mps 751 mmHg 90%
20:00 +21°C° 0.5 mm 1 mps 751 mmHg 93%
21:00 +21°C° 0 mm 1 mps 751 mmHg 94%
22:00 +20°C° 0 mm 1 mps 751 mmHg 94%
23:00 +20°C° 0 mm 1 mps 751 mmHg 95%

29 July, Thursday

Time Temperature Precipitation Wind Pressure Humidity
00:00 +19°C° 0 mm 1 mps 751 mmHg 95%
01:00 +19°C° 0 mm 1 mps 751 mmHg 95%
02:00 +17°C° 0 mm 2 mps 751 mmHg 95%
03:00 +17°C° 0 mm 2 mps 751 mmHg 95%
04:00 +17°C° 0 mm 2 mps 751 mmHg 95%
05:00 +17°C° 0 mm 2 mps 751 mmHg 95%
06:00 +18°C° 0 mm 2 mps 751 mmHg 91%
07:00 +19°C° 0 mm 2 mps 751 mmHg 86%
08:00 +21°C° 0 mm 3 mps 751 mmHg 82%
09:00 +24°C° 0 mm 3 mps 751 mmHg 70%
10:00 +26°C° 0 mm 4 mps 751 mmHg 58%
11:00 +27°C° 0 mm 4 mps 751 mmHg 46%
12:00 +27°C° 0 mm 4 mps 751 mmHg 47%
13:00 +27°C° 0 mm 4 mps 751 mmHg 47%
14:00 +27°C° 0 mm 4 mps 751 mmHg 48%
15:00 +27°C° 0 mm 4 mps 751 mmHg 49%
16:00 +26°C° 0 mm 4 mps 751 mmHg 50%
17:00 +26°C° 0 mm 4 mps 751 mmHg 51%
18:00 +25°C° 0 mm 4 mps 751 mmHg 55%
19:00 +24°C° 0 mm 3 mps 751 mmHg 58%
20:00 +21°C° 0 mm 3 mps 751 mmHg 62%
21:00 +20°C° 0 mm 3 mps 751 mmHg 68%
22:00 +18°C° 0 mm 2 mps 752 mmHg 74%
23:00 +17°C° 0 mm 2 mps 752 mmHg 80%

30 July, Friday

Time Temperature Precipitation Wind Pressure Humidity
00:00 +16°C° 0 mm 2 mps 752 mmHg 83%
01:00 +15°C° 0 mm 2 mps 752 mmHg 86%
02:00 +14°C° 0 mm 2 mps 752 mmHg 90%
03:00 +14°C° 0 mm 2 mps 752 mmHg 90%
04:00 +14°C° 0 mm 2 mps 752 mmHg 90%
05:00 +14°C° 0 mm 2 mps 753 mmHg 90%
06:00 +17°C° 0 mm 3 mps 753 mmHg 80%
07:00 +19°C° 0 mm 3 mps 753 mmHg 69%
08:00 +21°C° 0 mm 4 mps 753 mmHg 59%
09:00 +23°C° 0 mm 4 mps 752 mmHg 53%
10:00 +25°C° 0 mm 4 mps 752 mmHg 47%
11:00 +27°C° 0 mm 4 mps 752 mmHg 42%
12:00 +27°C° 0 mm 4 mps 752 mmHg 42%
13:00 +27°C° 0 mm 4 mps 751 mmHg 43%
14:00 +27°C° 0 mm 3 mps 751 mmHg 44%
15:00 +27°C° 0 mm 3 mps 751 mmHg 47%
16:00 +26°C° 0 mm 3 mps 751 mmHg 50%
17:00 +26°C° 0 mm 3 mps 751 mmHg 53%
18:00 +25°C° 0 mm 3 mps 750 mmHg 57%
19:00 +24°C° 0 mm 3 mps 750 mmHg 62%
20:00 +21°C° 0 mm 3 mps 750 mmHg 66%
21:00 +21°C° 0.1 mm 3 mps 749 mmHg 68%
22:00 +20°C° 0.1 mm 3 mps 749 mmHg 71%
23:00 +20°C° 0.1 mm 3 mps 749 mmHg 73%
Show more